Date String (YYYY-MM-DD hh:mm:ss) UTC,Instrument flags,Ambient pressure (hPa),Sample flow (lpm),Bypass flow (lpm),Sample temperature (°C),Ambient temperature (°C),ASC tube jacket temperature (°C),LED temperature (°C),Box temperature (°C),Sample RH (%),Span deviation,Mass concentration (μg/m³),Mass concentration (μg/m³),Mass concentration (μg/m³)
DateTimeUTC,F1_M11,P_M11,Q1_M11,Q2_M11,T1_M11,T2_M11,T3_M11,T4_M11,T5_M11,U1_M11,ZSPAN_M11,X2_M11,X0_M11,X1_M11
2022-03-19 12:00:00,,0826.7,5.00,0.00,22.7,21.8,00.0,31.7,24.5,08.1,0000.0,0003.05,0006.63,0001.87
2022-03-19 12:01:00,,0826.7,5.00,0.00,22.7,21.8,00.0,31.7,24.5,08.1,0000.0,0002.99,0006.69,0001.87
2022-03-19 12:02:00,,0826.7,5.01,0.00,22.7,21.8,00.0,31.7,24.5,08.2,0000.0,0002.97,0006.65,0001.87
2022-03-19 12:03:00,,0826.7,5.00,0.00,22.7,21.8,00.0,31.7,24.5,08.2,0000.0,0002.92,0006.51,0001.89
2022-03-19 12:04:00,,0826.7,5.00,0.00,22.7,21.8,00.0,31.7,24.5,08.2,0000.0,0002.92,0006.91,0001.89
2022-03-19 12:05:00,,0826.7,4.99,0.00,22.7,21.8,00.0,31.7,24.5,08.1,0000.0,0002.89,0007.84,0001.89
2022-03-19 12:06:00,,0826.7,5.00,0.00,22.7,21.8,00.0,31.7,24.5,08.1,0000.0,0002.91,0007.95,0001.89
2022-03-19 12:07:00,,0826.7,5.00,0.00,22.7,21.8,00.0,31.7,24.5,08.2,0000.0,0002.94,0007.90,0001.89
2022-03-19 12:08:00,,0826.8,4.99,0.00,22.7,21.8,00.0,31.7,24.5,08.2,0000.0,0002.94,0007.87,0001.89
2022-03-19 12:09:00,,0826.8,5.00,0.00,22.7,21.8,00.0,31.7,24.5,08.3,0000.0,0002.95,0007.73,0001.90
2022-03-19 12:10:00,,0826.8,5.00,0.00,22.7,21.8,00.0,31.7,24.5,08.2,0000.0,0002.90,0007.55,0001.90
2022-03-19 12:11:00,,0826.8,5.00,0.00,22.7,21.8,00.0,31.6,24.5,08.2,0000.0,0002.90,0007.42,0001.90
2022-03-19 12:12:00,,0826.8,5.00,0.00,22.7,21.8,00.0,31.6,24.5,08.2,0000.0,0002.84,0006.64,0001.89
2022-03-19 12:13:00,,0826.8,5.00,0.00,22.7,21.7,00.0,31.6,24.5,08.3,0000.0,0002.81,0006.57,0001.88
2022-03-19 12:14:00,,0826.8,5.00,0.00,22.7,21.8,00.0,31.6,24.4,08.5,0000.0,0002.86,0006.67,0001.89
2022-03-19 12:15:00,,0826.9,5.02,0.00,22.7,21.8,00.0,31.6,24.4,08.5,0000.0,0002.83,0006.34,0001.87
2022-03-19 12:16:00,,0826.9,5.00,0.00,22.7,21.7,00.0,31.6,24.4,08.5,0000.0,0002.86,0005.19,0001.88
2022-03-19 12:17:00,,0826.8,5.00,0.00,22.7,21.7,00.0,31.6,24.4,08.4,0000.0,0002.93,0004.93,0001.90
2022-03-19 12:18:00,,0826.9,4.99,0.00,22.6,21.7,00.0,31.6,24.4,08.3,0000.0,0002.91,0005.07,0001.89
2022-03-19 12:19:00,,0827.0,5.00,0.00,22.6,21.7,00.0,31.6,24.4,08.3,0000.0,0003.00,0005.43,0001.88
2022-03-19 12:20:00,,0826.9,5.01,0.00,22.6,21.7,00.0,31.6,24.4,08.6,0000.0,0002.98,0005.55,0001.87
2022-03-19 12:21:00,,0827.0,5.00,0.00,22.6,21.7,00.0,31.6,24.3,08.7,0000.0,0002.96,0005.50,0001.88
2022-03-19 12:22:00,,0826.9,4.99,0.00,22.6,21.7,00.0,31.6,24.3,08.7,0000.0,0002.97,0005.58,0001.87
2022-03-19 12:23:00,,0826.9,5.00,0.00,22.6,21.7,00.0,31.6,24.3,08.7,0000.0,0002.98,0005.59,0001.87
2022-03-19 12:24:00,,0827.0,5.00,0.00,22.6,21.7,00.0,31.6,24.4,08.6,0000.0,0003.00,0005.75,0001.86
2022-03-19 12:25:00,,0827.0,5.00,0.00,22.6,21.7,00.0,31.6,24.4,08.6,0000.0,0003.04,0005.93,0001.87
2022-03-19 12:26:00,,0826.9,5.00,0.00,22.6,21.7,00.0,31.6,24.3,08.6,0000.0,0003.08,0006.06,0001.88
2022-03-19 12:27:00,,0827.0,5.00,0.00,22.6,21.7,00.0,31.6,24.3,08.6,0000.0,0003.02,0005.93,0001.89
2022-03-19 12:28:00,,0826.9,4.99,0.00,22.6,21.6,00.0,31.6,24.3,08.6,0000.0,0002.98,0005.92,0001.89
2022-03-19 12:29:00,,0826.9,5.00,0.00,22.6,21.6,00.0,31.6,24.3,08.6,0000.0,0003.03,0005.99,0001.91
2022-03-19 12:30:00,,0826.9,5.00,0.00,22.6,21.6,00.0,31.6,24.3,08.5,0000.0,0002.96,0005.64,0001.93
2022-03-19 12:31:00,,0826.9,5.00,0.00,22.6,21.6,00.0,31.6,24.3,08.5,0000.0,0003.07,0006.51,0001.94
2022-03-19 12:32:00,,0826.9,5.01,0.00,22.6,21.6,00.0,31.5,24.3,08.5,0000.0,0003.11,0007.14,0001.93
2022-03-19 12:33:00,,0827.0,5.00,0.00,22.6,21.6,00.0,31.5,24.3,08.5,0000.0,0003.11,0007.27,0001.93
2022-03-19 12:34:00,,0827.0,5.00,0.00,22.6,21.6,00.0,31.5,24.3,08.5,0000.0,0003.14,0007.41,0001.93
2022-03-19 12:35:00,,0826.9,5.00,0.00,22.6,21.6,00.0,31.5,24.3,08.5,0000.0,0003.14,0007.40,0001.91
2022-03-19 12:36:00,,0826.9,5.00,0.00,22.6,21.6,00.0,31.5,24.3,08.5,0000.0,0003.09,0007.24,0001.89
2022-03-19 12:37:00,,0827.0,5.00,0.00,22.5,21.6,00.0,31.5,24.3,08.6,0000.0,0003.07,0007.19,0001.89
2022-03-19 12:38:00,,0826.9,5.00,0.00,22.5,21.6,00.0,31.5,24.2,08.5,0000.0,0003.08,0007.20,0001.89
2022-03-19 12:39:00,,0827.0,5.00,0.00,22.5,21.5,00.0,31.5,24.2,08.5,0000.0,0003.10,0007.10,0001.89
2022-03-19 12:40:00,,0826.9,4.99,0.00,22.5,21.5,00.0,31.5,24.2,08.5,0000.0,0003.13,0007.11,0001.89
2022-03-19 12:41:00,,0826.9,5.00,0.00,22.5,21.5,00.0,31.5,24.2,08.5,0000.0,0003.15,0007.14,0001.92
2022-03-19 12:42:00,,0827.0,5.00,0.00,22.5,21.5,00.0,31.5,24.2,08.4,0000.0,0003.09,0007.06,0001.92
2022-03-19 12:43:00,,0826.9,5.00,0.00,22.5,21.5,00.0,31.5,24.2,08.4,0000.0,0003.05,0006.92,0001.93
2022-03-19 12:44:00,,0827.0,5.00,0.00,22.5,21.7,00.0,31.5,24.3,08.4,0000.0,0003.04,0007.26,0001.93
2022-03-19 12:45:00,,0826.9,4.99,0.00,22.6,22.4,00.0,31.5,24.4,08.4,0000.0,0003.01,0007.34,0001.94
2022-03-19 12:46:00,,0826.9,5.00,0.00,22.7,23.1,00.0,31.6,24.7,08.3,0000.0,0003.04,0007.36,0001.97
2022-03-19 12:47:00,,0827.0,5.01,0.00,22.8,23.1,00.0,31.6,24.7,08.4,0000.0,0003.05,0007.40,0001.97
2022-03-19 12:48:00,,0826.9,4.99,0.00,22.8,22.9,00.0,31.6,24.7,08.3,0000.0,0003.05,0007.41,0001.96
2022-03-19 12:49:00,,0826.9,5.01,0.00,22.8,22.7,00.0,31.6,24.7,08.3,0000.0,0003.06,0007.43,0001.96
2022-03-19 12:50:00,,0826.9,5.00,0.00,22.8,22.6,00.0,31.6,24.7,08.3,0000.0,0003.01,0007.38,0001.97
2022-03-19 12:51:00,,0827.0,5.00,0.00,22.8,22.4,00.0,31.6,24.7,08.3,0000.0,0003.02,0007.36,0001.96
2022-03-19 12:52:00,,0827.0,5.01,0.00,22.8,22.3,00.0,31.6,24.7,08.3,0000.0,0003.02,0007.37,0001.95
2022-03-19 12:53:00,,0827.0,5.00,0.00,22.8,22.2,00.0,31.6,24.7,08.3,0000.0,0003.04,0006.53,0001.95
2022-03-19 12:54:00,,0827.1,5.00,0.00,22.8,22.1,00.0,31.7,24.6,08.3,0000.0,0003.08,0006.23,0001.97
2022-03-19 12:55:00,,0827.1,5.00,0.00,22.8,22.1,00.0,31.7,24.6,08.3,0000.0,0003.07,0005.74,0001.99
2022-03-19 12:56:00,,0827.0,5.01,0.00,22.8,22.0,00.0,31.7,24.6,08.3,0000.0,0003.12,0005.57,0002.02
2022-03-19 12:57:00,,0827.0,5.00,0.00,22.8,22.0,00.0,31.7,24.6,08.4,0000.0,0003.12,0005.54,0002.01
2022-03-19 12:58:00,,0827.0,5.00,0.00,22.8,21.9,00.0,31.7,24.6,08.4,0000.0,0003.11,0005.54,0002.02
2022-03-19 12:59:00,,0827.0,4.99,0.00,22.8,21.9,00.0,31.7,24.6,08.5,0000.0,0003.10,0005.45,0002.02
